Regional Weather Roundup
Issued by NWS

Home | Current Version | Previous Version | Graphics & Text | Print | Product List | Glossary On
Versions: 1 2 3 4 5 6 7 8 9 10 11 12 13 14 15 16 17 18 19 20 21 22 23 24 25 26 27 28 29 30 31 32 33 34 35 36 37 38 39 40 41 42 43 44 45 46 47 48 49 50
000
ASUS43 KLOT 311100
RWRIL

ILLINOIS REGIONAL WEATHER ROUNDUP
NATIONAL WEATHER SERVICE CHICAGO/ROMEOVILLE IL
600 AM CDT FRI JUL 31 2015

NOTE: "FAIR" INDICATES FEW OR NO CLOUDS BELOW 12,000 FEET WITH NO
SIGNIFICANT WEATHER AND/OR OBSTRUCTIONS TO VISIBILITY.

* THESE STATIONS ARE NOT UNDER NWS QUALITY CONTROL. THEY ALSO MAY NOT
  REPORT WEATHER SUCH AS PRECIPITATION OR FOG.

ILZ001-002-007-009-015-016-024-311200-
NORTHWEST ILLINOIS

CITY           SKY/WX    TMP DP  RH WIND       PRES   REMARKS
MOLINE         CLEAR     66  62  87 SW6       30.06S
STERLING*      CLEAR     64  63  94 W5        30.01F
$$

ILZ003-004-008-010-011-017-018-311200-
NORTH CENTRAL ILLINOIS

CITY           SKY/WX    TMP DP  RH WIND       PRES   REMARKS
ROCKFORD       MOCLDY    63  58  83 S7        30.03F
$$

ILZ005-006-012>014-019>023-311200-
NORTHEAST ILLINOIS

CITY           SKY/WX    TMP DP  RH WIND       PRES   REMARKS
CHICAGO-OHARE  PTCLDY    67  59  75 W8        30.01S
CHICAGO-MIDWAY PTCLDY    71  57  61 SW6       30.01F
AURORA         PTCLDY    60  56  86 SW5       30.03F
WAUKEGAN       CLEAR     66  58  75 CALM      29.99F
DUPAGE AIRPORT CLEAR     64  58  80 VRB3      30.02F
WHEELING       CLEAR     69  57  65 W5        30.02F
NORTHERLY ISL    N/A     73  57  57 W9          N/A
$$

LMZ740>746-311200-
SOUTHERN LAKE MICHIGAN

STATION/POSITION SKY/WX   TEMP    WIND        PRES    VSBY  WAVE
                          AIR SEA DIR/SP/G                  HT/PER
                          (F)     (DEG/KT/KT) (MB)    (MI)  (FT/S)
HARRISON CRIB              74     270/ 12/ 14   N/A
BURNHAM HARBOR             74     280/  6/  8   N/A
CALUMET HARBOR             72     240/  3/  5   N/A
BURNS HARBOR               73     240/ 10/ 12 1016.9S
MICHIGAN CITY              71     190/  8/ 12   N/A
MICHIGAN CITY 6N           74 73  280/  8/ 12   N/A           2/ 4
ST. JOSEPH                 74 74  310/ 12/ 14   N/A           2/ 3
$$

ILZ025>027-034>036-040-047-049-050-058-095>099-311200-
WEST-CENTRAL ILLINOIS

CITY           SKY/WX    TMP DP  RH WIND       PRES   REMARKS
QUINCY         CLEAR     66  63  90 SW5       30.12S
MACOMB*        CLEAR     65  64  95 W5        30.11F
$$

ILZ028>032-037-038-041>044-048-051>054-059>061-311200-
CENTRAL ILLINOIS

CITY           SKY/WX    TMP DP  RH WIND       PRES   REMARKS
DECATUR        CLEAR     71  65  81 NW6       30.09R
PEORIA         CLEAR     70  63  78 W5        30.08S
SPRINGFIELD    CLEAR     66  63  90 W3        30.10R
TAYLORVILLE    NOT AVBL
$$

ILZ033-039-045-046-055>057-062-063-311200-
EAST-CENTRAL ILLINOIS

CITY           SKY/WX    TMP DP  RH WIND       PRES   REMARKS
CHAMPAIGN      CLEAR     63  62  97 W3        30.08S
MATTOON        CLEAR     65  61  87 W5        30.08R
$$

ILZ079-100>102-311200-
SOUTHWEST ILLINOIS

CITY           SKY/WX    TMP DP  RH WIND       PRES   REMARKS
CAHOKIA*       CLEAR     70  64  81 SW5       30.12R
SPARTA*        CLEAR     68  65  92 CALM      30.12R
$$

ILZ064>066-069>071-074>076-080>082-084>086-088>090-092>094-311200-
SOUTH-CENTRAL ILLINOIS

CITY           SKY/WX    TMP DP  RH WIND       PRES   REMARKS
CARBONDALE     CLEAR     67  65  93 CALM      30.11R
MT. VERNON     CLEAR     70  61  73 CALM      30.11R
SALEM*         CLEAR     66  63  89 CALM      30.11R
$$

ILZ067-068-072-073-078-083-087-091-311200-
SOUTHEAST ILLINOIS

CITY           SKY/WX    TMP DP  RH WIND       PRES   REMARKS
LAWRENCEVILLE  CLEAR     67  64  90 NW5       30.08R
FLORA*         CLEAR     68  63  85 NW6       30.10R
HARRISBURG*    CLEAR     65  65 100 SW3       30.11R
ROBINSON*      CLEAR     61  60  97 CALM      30.09R
CARMI*         CLEAR     65  60  81 CALM      30.08R
$$

ABBREVIATIONS USED IN REMARKS
   TC - TEMPERATURE IN CELSIUS
  WCI - WIND CHILL INDEX
   HX - HEAT INDEX
  VSB - VISIBILITY
$$




USA.gov is the U.S. government's official web portal to all federal, state and local government web resources and services.